TimeCDT,TemperatureF,Dew PointF,Humidity,Sea Level PressureIn,VisibilityMPH,Wind Direction,Wind SpeedMPH,Gust SpeedMPH,PrecipitationIn,Events,Conditions,WindDirDegrees,DateUTC
12:15 AM,61.9,52.7,72,29.88,10.0,SE,9.2,-,N/A,,Clear,130,2013-05-22 05:15:00
12:35 AM,61.7,52.9,73,29.90,10.0,South,4.6,-,N/A,,Clear,170,2013-05-22 05:35:00
12:55 AM,61.7,52.7,72,29.87,10.0,SSE,9.2,-,N/A,,Clear,160,2013-05-22 05:55:00
1:15 AM,61.3,52.9,74,29.88,10.0,South,5.8,-,N/A,,Clear,170,2013-05-22 06:15:00
1:35 AM,60.6,52.7,75,29.89,10.0,SSW,3.5,-,N/A,,Clear,210,2013-05-22 06:35:00
1:55 AM,58.6,52.3,80,29.88,10.0,Calm,Calm,-,N/A,,Clear,0,2013-05-22 06:55:00
2:15 AM,58.5,52.7,81,29.87,10.0,SSE,4.6,-,N/A,,Clear,150,2013-05-22 07:15:00
2:35 AM,58.1,52.0,80,29.88,10.0,SSW,4.6,-,N/A,,Clear,200,2013-05-22 07:35:00
2:55 AM,58.8,52.0,78,29.87,10.0,Calm,Calm,-,N/A,,Clear,0,2013-05-22 07:55:00
3:15 AM,58.1,52.2,81,29.85,10.0,ESE,4.6,-,N/A,,Clear,110,2013-05-22 08:15:00
3:35 AM,56.5,51.1,82,29.86,10.0,SSE,3.5,-,N/A,,Clear,150,2013-05-22 08:35:00
3:55 AM,55.6,51.1,85,29.87,10.0,ESE,4.6,-,N/A,,Clear,110,2013-05-22 08:55:00
4:15 AM,55.4,51.3,86,29.87,10.0,ESE,4.6,-,N/A,,Clear,120,2013-05-22 09:15:00
4:35 AM,55.2,51.8,88,29.88,10.0,ESE,3.5,-,N/A,,Clear,120,2013-05-22 09:35:00
4:55 AM,54.7,51.1,88,29.89,10.0,Calm,Calm,-,N/A,,Clear,0,2013-05-22 09:55:00
5:15 AM,55.4,51.8,88,29.90,10.0,Calm,Calm,-,N/A,,Clear,0,2013-05-22 10:15:00
5:35 AM,55.4,51.1,85,29.90,10.0,Calm,Calm,-,N/A,,Clear,0,2013-05-22 10:35:00
5:55 AM,54.1,50.4,87,29.90,10.0,Calm,Calm,-,N/A,,Clear,0,2013-05-22 10:55:00
6:15 AM,54.5,50.9,88,29.91,10.0,Calm,Calm,-,N/A,,Clear,0,2013-05-22 11:15:00
6:35 AM,54.5,51.3,89,29.91,10.0,Calm,Calm,-,N/A,,Clear,0,2013-05-22 11:35:00
6:55 AM,55.0,51.6,88,29.92,10.0,North,3.5,-,N/A,,Clear,10,2013-05-22 11:55:00
7:15 AM,55.0,51.6,88,29.92,10.0,Calm,Calm,-,N/A,,Clear,0,2013-05-22 12:15:00
7:35 AM,56.5,52.5,87,29.92,10.0,NNW,3.5,-,N/A,,Clear,340,2013-05-22 12:35:00
7:55 AM,60.1,54.9,83,29.93,10.0,NNW,4.6,-,N/A,,Clear,330,2013-05-22 12:55:00
8:15 AM,61.2,54.9,80,29.93,10.0,North,6.9,-,N/A,,Clear,350,2013-05-22 13:15:00
8:35 AM,63.1,54.1,72,29.94,10.0,NNW,6.9,-,N/A,,Clear,330,2013-05-22 13:35:00
8:55 AM,66.0,53.2,63,29.94,10.0,North,4.6,-,N/A,,Clear,350,2013-05-22 13:55:00
9:15 AM,68.2,52.7,58,29.95,10.0,North,5.8,-,N/A,,Clear,350,2013-05-22 14:15:00
9:35 AM,70.0,51.3,51,29.96,10.0,North,4.6,-,N/A,,Clear,360,2013-05-22 14:35:00
9:55 AM,71.6,50.9,48,29.97,10.0,WNW,5.8,-,N/A,,Clear,290,2013-05-22 14:55:00
10:15 AM,73.8,50.4,44,29.96,10.0,West,4.6,-,N/A,,Clear,260,2013-05-22 15:15:00
10:35 AM,75.4,50.0,41,29.96,10.0,Calm,Calm,-,N/A,,Clear,0,2013-05-22 15:35:00
10:55 AM,77.0,46.8,34,29.96,10.0,WSW,6.9,-,N/A,,Clear,240,2013-05-22 15:55:00
11:15 AM,79.0,47.1,32,29.97,10.0,West,5.8,-,N/A,,Clear,270,2013-05-22 16:15:00
11:35 AM,79.7,47.5,32,29.96,10.0,West,6.9,-,N/A,,Clear,270,2013-05-22 16:35:00
11:55 AM,79.7,45.7,30,29.96,10.0,South,3.5,-,N/A,,Clear,170,2013-05-22 16:55:00
12:15 PM,81.0,45.3,28,29.95,10.0,South,3.5,-,N/A,,Clear,170,2013-05-22 17:15:00
12:35 PM,83.1,45.0,26,29.95,10.0,West,5.8,-,N/A,,Clear,260,2013-05-22 17:35:00
12:55 PM,83.5,43.5,24,29.95,10.0,South,6.9,-,N/A,,Clear,170,2013-05-22 17:55:00
1:15 PM,84.0,44.2,25,29.94,10.0,SSE,4.6,-,N/A,,Clear,160,2013-05-22 18:15:00
1:35 PM,85.5,42.1,22,29.93,10.0,South,9.2,-,N/A,,Clear,180,2013-05-22 18:35:00
1:55 PM,85.8,41.4,21,29.92,10.0,South,13.8,-,N/A,,Clear,190,2013-05-22 18:55:00
2:15 PM,86.5,41.0,20,29.91,10.0,South,10.4,17.3,N/A,,Clear,180,2013-05-22 19:15:00
2:35 PM,88.9,40.8,19,29.90,10.0,South,12.7,16.1,N/A,,Clear,190,2013-05-22 19:35:00
2:55 PM,88.2,40.6,19,29.90,10.0,South,16.1,-,N/A,,Clear,170,2013-05-22 19:55:00
3:15 PM,88.7,41.5,19,29.89,10.0,SSE,12.7,19.6,N/A,,Clear,150,2013-05-22 20:15:00
3:35 PM,89.1,41.5,19,29.88,10.0,SSW,12.7,18.4,N/A,,Clear,200,2013-05-22 20:35:00
3:55 PM,89.4,40.8,18,29.87,10.0,SSW,12.7,17.3,N/A,,Clear,200,2013-05-22 20:55:00
4:15 PM,90.5,40.3,17,29.86,10.0,SSE,12.7,19.6,N/A,,Clear,160,2013-05-22 21:15:00
4:35 PM,90.3,39.2,17,29.86,10.0,South,9.2,20.7,N/A,,Clear,180,2013-05-22 21:35:00
4:55 PM,90.3,39.7,17,29.85,10.0,SSE,15.0,20.7,N/A,,Clear,160,2013-05-22 21:55:00
5:15 PM,91.4,38.3,16,29.84,10.0,South,19.6,24.2,N/A,,Clear,170,2013-05-22 22:15:00
5:35 PM,90.7,38.3,16,29.84,10.0,South,17.3,23.0,N/A,,Clear,170,2013-05-22 22:35:00
5:55 PM,91.0,37.9,15,29.83,10.0,South,17.3,24.2,N/A,,Clear,180,2013-05-22 22:55:00
6:15 PM,91.2,37.9,15,29.83,10.0,South,17.3,-,N/A,,Clear,170,2013-05-22 23:15:00
6:35 PM,90.7,38.8,16,29.83,10.0,SSE,16.1,-,N/A,,Clear,150,2013-05-22 23:35:00
6:55 PM,89.6,40.5,18,29.82,10.0,SSE,17.3,-,N/A,,Clear,150,2013-05-22 23:55:00
7:15 PM,89.1,40.1,18,29.82,10.0,SSE,19.6,23.0,N/A,,Clear,150,2013-05-23 00:15:00
7:35 PM,87.8,40.6,19,29.82,10.0,SE,16.1,20.7,N/A,,Clear,140,2013-05-23 00:35:00
7:55 PM,86.7,39.4,19,29.82,10.0,SE,17.3,-,N/A,,Clear,140,2013-05-23 00:55:00
8:15 PM,85.3,40.1,20,29.82,10.0,SE,16.1,-,N/A,,Clear,140,2013-05-23 01:15:00
8:35 PM,83.3,41.5,23,29.82,10.0,SE,12.7,-,N/A,,Clear,130,2013-05-23 01:35:00
8:55 PM,80.4,43.0,26,29.83,10.0,ESE,11.5,-,N/A,,Clear,120,2013-05-23 01:55:00
9:15 PM,78.3,44.4,30,29.84,10.0,ESE,11.5,-,N/A,,Clear,120,2013-05-23 02:15:00
9:35 PM,76.3,45.0,33,29.84,10.0,ESE,12.7,-,N/A,,Clear,120,2013-05-23 02:35:00
9:55 PM,76.1,45.5,34,29.85,10.0,ESE,15.0,-,N/A,,Clear,120,2013-05-23 02:55:00
10:15 PM,74.7,46.6,37,29.85,10.0,ESE,12.7,-,N/A,,Clear,120,2013-05-23 03:15:00
10:35 PM,73.4,49.1,42,29.86,10.0,ESE,12.7,-,N/A,,Clear,120,2013-05-23 03:35:00
10:55 PM,73.4,51.6,46,29.87,10.0,ESE,11.5,-,N/A,,Clear,120,2013-05-23 03:55:00
11:15 PM,73.0,52.2,48,29.88,10.0,ESE,12.7,-,N/A,,Clear,120,2013-05-23 04:15:00
11:35 PM,72.1,52.3,50,29.89,10.0,ESE,11.5,-,N/A,,Clear,120,2013-05-23 04:35:00
11:55 PM,71.6,52.7,51,29.89,10.0,ESE,12.7,-,N/A,,Clear,110,2013-05-23 04:55:00